This demonstration page uses our WeatherBlox Daily Observations layout. Learn more.

38.89511, -77.03637

Hourly Observations for October 23, 2018

Temp ( °F °C ) Dew Point ( °F °C ) Humidity (%) Winds ( mph kmh ) Pressure ( in mb ) Visibility ( mi km ) Precip ( " mm )
12:52 am 00:52 Mostly Cloudy 51 10.6 42 5.6 71 71 S 7 11 30.15 1021 10 16.0934 0 0
1:52 am 01:52 Mostly Cloudy 50 10 41 5 71 71 SSW 5 7 30.14 1021 10 16.0934 0 0
2:52 am 02:52 Partly Cloudy 49 9.4 41 5 74 74 S 7 11 30.13 1020 10 16.0934 0 0
3:52 am 03:52 Mostly Clear 47 8.3 41 5 80 80 SW 6 9 30.11 1020 10 16.0934 0 0
4:52 am 04:52 Mostly Clear 46 7.8 41 5 83 83 SW 5 7 30.11 1020 10 16.0934 0 0
5:52 am 05:52 Mostly Clear 45 7.2 41 5 86 86 SW 5 7 30.11 1020 10 16.0934 0 0
6:52 am 06:52 Mostly Clear 46 7.8 41 5 83 83 SSW 5 7 30.1 1019 10 16.0934 0 0
7:52 am 07:52 Mostly Sunny 47 8.3 42 5.6 83 83 SSW 5 7 30.11 1020 10 16.0934 0 0
8:52 am 08:52 Mostly Sunny 49 9.4 41 5 74 74 SSW 5 7 30.11 1020 10 16.0934 0 0
9:52 am 09:52 Mostly Sunny 52 11.1 46 7.8 80 80 S 9 15 30.11 1020 10 16.0934 0 0
10:52 am 10:52 Sunny 57 13.9 47 8.3 69 69 S 10 17 30.09 1019 10 16.0934 0 0
11:52 am 11:52 Sunny 62 16.7 47 8.3 58 58 S 9 15 30.08 1019 10 16.0934 0 0
12:52 pm 12:52 Mostly Sunny 68 20 43 6.1 40 40 SW 9 15 30.04 1017 10 16.0934 0 0
1:52 pm 13:52 Mostly Sunny 71 21.7 40 4.4 32 32 WSW 9 15 30.01 1016 10 16.0934 0 0
2:52 pm 14:52 Mostly Sunny 71 21.7 39 3.9 31 31 W 13 20 29.99 1016 10 16.0934 0 0.0254
3:52 pm 15:52 Mostly Sunny 71 21.7 38 3.3 30 30 WSW 10 17 29.98 1015 10 16.0934 0 0
4:52 pm 16:52 Mostly Sunny 70 21.1 40 4.4 34 34 WSW 12 19 29.97 1015 10 16.0934 0 0
5:52 pm 17:52 Mostly Sunny 68 20 42 5.6 39 39 SW 9 15 29.97 1015 10 16.0934 0 0
6:52 pm 18:52 Partly Cloudy 67 19.4 33 0.6 28 28 NW 12 19 30.02 1017 10 16.0934 0 0
7:52 pm 19:52 Mostly Clear 61 16.1 35 1.7 38 38 N 12 19 30.05 1018 10 16.0934 0 0
8:52 pm 20:52 Clear 59 15 33 0.6 38 38 N 6 9 30.07 1018 10 16.0934 0 0
9:52 pm 21:52 Mostly Clear 59 15 33 0.6 38 38 NNW 16 26 30.08 1019 10 16.0934 0 0
10:52 pm 22:52 Mostly Clear 58 14.4 34 1.1 41 41 NNW 15 24 30.11 1020 10 16.0934 0 0
11:52 pm 23:52 Mostly Clear 56 13.3 33 0.6 42 42 NW 10 17 30.12 1020 10 16.0934 0 0

Powered by AerisWeather